Wind_Speed
17 14 18 17 16 15 16 17 19 19 18 18 17 15 12 11 9 7 4 3 4 4 3 4 6 5 4 6 4 3 5 7 8 9 11 12 11 8 8 6 6 5 5
18 19 19 21 20 18 18 17 20 20 16 16 18 15 13 11 10 9 6 4 4 4 3 6 5 3 7 8 7 7 9 11 12 10 11 6 7 4 3 6 6 4 4
20 18 21 22 22 22 20 19 20 22 19 16 16 14 14 10 10 9 10 7 5 4 4 6 9 6 2 5 5 7 6 6 7 6 4 4 3 6 1 5 10 8 4
20 19 21 22 24 21 22 20 20 21 21 19 18 16 14 13 10 7 6 6 5 5 4 4 1 5 4 3 3 4 4 3 4 4 3 5 4 4 2 4 7 8 9
25 24 23 25 26 23 22 21 21 20 22 22 22 17 13 15 11 9 8 7 7 6 5 4 2 4 4 4 3 3 3 3 4 4 4 3 3 5 4 4 7 7 8
21 26 23 25 25 25 25 24 23 21 20 21 23 19 15 12 13 11 10 9 8 8 8 7 5 2 3 5 5 5 5 4 5 4 4 4 4 4 4 5 8 8 8
19 25 25 27 27 27 26 26 26 26 23 22 23 21 17 14 14 14 10 10 9 8 8 8 7 7 5 5 6 7 8 6 5 4 3 5 4 5 5 5 5 6 8
18 23 26 27 30 26 26 28 27 27 26 26 22 21 19 17 15 14 14 13 12 10 10 10 9 8 8 6 6 7 7 7 6 6 6 6 6 6 7 4 4 8 8
10 18 20 24 28 30 28 28 28 26 26 26 25 24 21 19 18 14 14 14 13 13 11 11 10 11 11 10 10 9 9 9 9 8 9 8 8 8 8 6 7 7 8
9 12 18 21 24 28 27 28 29 29 27 25 26 26 25 23 20 20 19 17 15 13 13 13 12 12 13 13 13 11 10 9 10 9 9 9 10 11 10 9 9 10 10
11 13 17 22 22 27 27 28 28 29 30 29 28 28 28 26 23 23 21 19 18 17 17 15 15 13 12 13 13 13 13 11 11 9 9 9 8 9 10 10 10 10 9
10 11 6 13 21 21 23 27 29 29 30 32 30 29 26 26 26 24 23 21 21 19 19 17 15 14 14 14 13 14 12 12 11 9 9 8 9 9 9 10 11 10 11
6 3 4 15 13 16 22 24 26 27 26 29 31 32 30 27 26 26 24 25 23 21 19 20 18 16 16 15 14 13 12 11 11 11 11 10 10 9 9 9 10 10 11
4 4 4 9 13 17 23 22 26 31 31 29 27 29 32 29 25 23 23 23 25 24 23 22 20 19 18 17 16 15 14 13 13 12 12 12 12 10 9 10 10 9 11
3 5 8 12 11 13 15 19 23 27 28 29 28 27 28 31 29 25 23 21 22 24 26 26 24 21 20 18 16 15 16 16 15 13 12 12 13 14 14 14 14 13 12
6 6 6 8 7 8 8 12 13 19 22 24 26 24 24 27 29 28 25 24 22 22 24 25 27 26 23 21 18 18 18 16 15 14 15 16 16 17 17 17 16 16 15
7 7 6 6 9 9 5 5 4 5 12 21 24 25 24 25 27 27 27 25 23 21 22 23 24 24 24 23 20 20 21 17 18 17 16 17 18 15 15 15 17 18 18
6 5 5 5 6 10 10 8 10 9 9 8 10 16 21 25 25 27 26 25 23 20 20 20 20 23 24 23 23 23 21 21 22 21 19 18 18 16 15 16 18 18 16
4 3 4 6 7 8 9 7 3 6 9 12 14 15 16 18 21 21 23 24 22 19 19 21 21 21 23 24 26 29 23 23 22 22 21 17 15 14 15 17 15 12 12
2 4 4 5 8 10 11 10 6 8 10 8 11 15 17 21 26 24 28 32 27 20 13 15 19 23 24 27 25 24 16 16 17 15 13 13 12 12 11 11 9 5 4
1 4 6 7 8 9 13 15 13 10 7 7 6 13 12 20 21 22 26 25 29 34 25 17 16 21 24 21 9 8 10 11 11 12 9 8 8 7 6 5 3 2 3
2 4 5 7 7 8 9 9 12 9 6 2 6 7 5 9 9 12 16 24 24 26 24 18 12 11 13 11 8 6 8 11 10 10 7 7 7 3 3 4 3 2 2
3 3 4 6 7 5 5 5 8 8 9 2 4 9 2 7 7 6 11 14 14 12 15 13 10 7 11 11 6 4 7 4 7 8 5 3 2 3 5 5 3 3 4
6 4 3 6 7 6 3 4 8 8 11 9 5 5 5 10 9 8 13 9 10 16 16 14 14 14 12 11 8 7 4 7 7 6 7 5 5 5 4 5 4 3 3
7 5 4 4 7 5 4 5 4 5 8 9 8 6 2 5 7 10 12 12 14 13 14 13 13 13 13 14 14 12 12 11 9 8 7 6 5 6 5 5 4 4 6
8 7 6 4 6 3 5 5 4 5 7 6 7 7 3 5 8 11 15 15 13 12 11 10 10 12 12 12 11 10 10 9 9 9 8 7 6 6 7 7 7 8 8
Wind_Direction
237 233 231 232 230 220 214 214 208 206 206 210 202 203 212 211 215 216 209 198 206 204 207 282 318 265 272 257 252 288 302 304 310 317 318 321 325 305 327 337 346 21 10
232 238 239 226 231 232 219 211 206 206 208 202 203 213 209 217 222 219 222 232 208 201 235 273 267 301 288 231 237 259 277 290 297 309 311 320 346 29 57 34 40 44 12
233 227 237 219 217 225 216 209 204 208 204 199 200 207 205 226 219 231 229 232 224 227 296 287 259 279 224 206 227 257 282 298 309 318 319 328 355 336 15 57 34 36 13
235 228 229 223 211 218 214 210 205 212 210 207 208 208 225 224 216 220 223 221 230 242 245 308 176 182 192 188 222 251 256 293 316 329 2 23 15 7 320 10 26 26 30
228 224 224 226 216 218 219 215 211 216 217 217 214 211 216 211 233 228 221 229 241 241 229 235 199 182 197 207 249 252 273 309 326 311 319 320 335 349 348 325 350 10 26
229 230 229 226 222 223 223 222 219 219 221 215 213 213 216 229 231 218 226 234 236 227 225 230 224 222 237 238 248 268 287 297 316 304 312 322 303 305 333 331 338 354 5
228 227 219 223 223 224 223 227 223 222 222 219 221 225 227 226 228 224 231 238 239 236 233 233 239 235 243 255 266 280 283 291 293 303 302 322 305 305 303 303 315 335 345
235 232 224 222 224 228 226 228 229 225 226 225 228 231 232 237 231 236 235 240 239 240 231 234 240 239 250 265 291 282 283 291 290 287 286 303 298 298 296 285 311 322 320
251 234 231 225 224 229 230 232 230 230 231 232 232 233 235 238 236 244 241 239 235 243 234 231 241 256 257 262 271 284 286 289 293 285 286 288 290 290 293 295 303 306 314
321 259 229 233 225 227 231 233 236 235 236 235 236 237 240 242 246 243 243 241 243 243 242 244 249 262 265 268 265 272 285 293 301 288 285 289 284 285 288 279 293 296 291
320 311 242 232 235 239 234 234 238 239 240 239 239 239 239 240 244 243 242 242 242 251 249 247 253 261 265 261 260 283 280 287 290 287 291 297 293 293 294 287 292 292 290
327 339 254 238 232 233 236 241 241 241 242 242 243 243 243 243 244 247 247 245 246 251 245 247 251 258 263 267 274 278 275 281 282 278 290 299 301 307 300 293 292 294 291
353 358 300 246 234 227 239 245 246 244 243 244 242 242 243 241 243 246 249 247 246 248 246 244 253 261 262 273 274 275 276 282 273 275 282 290 294 298 292 305 306 298 292
304 278 280 281 261 250 249 251 249 247 246 247 246 242 242 242 245 247 247 248 246 249 250 250 256 260 263 266 269 269 271 277 280 278 279 282 287 290 287 292 301 301 302
309 311 299 302 286 261 245 253 253 245 247 249 249 247 244 243 244 247 249 251 254 253 254 256 255 258 263 262 268 261 261 267 270 274 280 283 280 281 285 285 286 296 304
303 312 312 303 300 268 258 262 254 243 242 244 248 249 250 244 243 246 246 247 252 258 255 253 256 259 261 260 263 262 265 266 265 267 275 281 285 287 282 278 281 290 297
285 295 295 268 255 247 255 267 259 270 252 241 245 248 248 247 243 244 243 244 250 256 248 250 257 256 256 258 258 257 264 268 266 270 276 279 282 282 279 276 280 287 292
291 303 287 278 254 252 270 279 277 255 243 245 254 257 257 248 246 242 240 237 241 246 245 250 253 253 255 256 254 258 260 261 263 265 273 276 276 276 273 277 285 288 284
295 313 317 268 262 243 254 254 269 262 257 244 252 258 265 264 255 244 233 227 230 235 242 249 256 258 256 254 259 262 263 259 259 269 271 268 271 278 286 284 279 279 280
322 324 326 290 262 254 247 242 268 287 263 270 258 257 251 253 246 236 238 239 233 234 241 253 253 255 254 258 259 265 261 277 276 269 260 267 274 278 282 275 276 279 293
310 328 319 305 296 283 265 249 249 267 263 269 266 261 261 252 250 245 242 246 245 236 244 264 273 262 255 261 235 264 279 275 269 265 254 267 270 261 264 256 228 168 141
270 325 323 323 313 306 298 257 233 241 225 304 0 17 257 250 243 236 246 239 241 236 233 249 252 249 222 207 227 241 265 259 261 252 260 258 251 239 188 172 163 178 150
257 300 327 329 315 309 297 239 215 209 201 208 40 56 90 165 144 193 198 203 199 200 210 186 176 203 209 160 144 189 220 227 239 240 211 180 178 142 140 147 169 131 137
230 257 297 328 312 300 289 259 229 222 224 227 234 214 160 121 111 127 127 132 156 155 160 156 153 158 153 139 159 175 153 192 207 191 168 163 143 125 136 120 114 102 113
232 234 268 328 337 297 271 252 238 224 231 221 208 187 137 137 177 162 150 147 136 139 144 148 170 188 184 189 185 179 180 192 182 173 171 168 162 148 142 132 131 115 108
225 244 261 302 332 287 244 236 217 220 198 209 189 177 177 186 167 191 174 178 189 178 174 170 167 171 170 169 168 168 162 161 167 175 183 174 164 149 136 127 119 112 111
Height
1546 1549 1551 1553 1556 1558 1560 1562 1564 1567 1569 1572 1574 1577 1579 1581 1583 1584 1585 1586 1587 1588 1589 1590 1590 1591 1592 1593 1594 1595 1594 1594 1593 1592 1590 1588 1587 1586 1586 1586 1584 1582 1582
1543 1545 1548 1551 1553 1556 1558 1560 1563 1565 1568 1570 1574 1577 1579 1581 1582 1583 1585 1585 1586 1587 1587 1588 1589 1590 1591 1592 1594 1594 1594 1593 1592 1592 1590 1588 1588 1587 1586 1586 1584 1583 1583
1539 1542 1544 1547 1551 1553 1556 1559 1562 1564 1567 1570 1573 1575 1578 1580 1581 1582 1583 1584 1585 1586 1587 1587 1588 1589 1590 1591 1592 1593 1593 1593 1591 1591 1590 1589 1589 1588 1587 1587 1585 1584 1584
1536 1539 1541 1544 1547 1550 1554 1558 1560 1563 1565 1568 1571 1573 1576 1579 1580 1582 1583 1584 1585 1586 1587 1587 1586 1588 1590 1591 1591 1591 1592 1592 1591 1591 1590 1589 1589 1590 1589 1587 1586 1585 1584
1531 1533 1536 1540 1544 1548 1551 1555 1559 1561 1564 1566 1569 1572 1574 1577 1579 1580 1582 1583 1584 1585 1586 1587 1588 1589 1590 1591 1591 1591 1591 1591 1591 1590 1590 1590 1589 1590 1590 1588 1588 1585 1584
1527 1529 1534 1537 1542 1546 1549 1552 1556 1559 1562 1564 1567 1569 1572 1575 1576 1578 1580 1582 1583 1585 1587 1588 1588 1589 1590 1591 1590 1592 1590 1590 1590 1589 1589 1588 1589 1590 1589 1588 1587 1585 1584
1524 1525 1529 1532 1537 1541 1545 1549 1553 1556 1560 1562 1564 1566 1569 1572 1575 1578 1579 1581 1582 1584 1585 1587 1587 1589 1589 1589 1590 1590 1589 1589 1589 1589 1588 1588 1587 1587 1587 1587 1586 1585 1583
1520 1521 1524 1528 1532 1536 1541 1545 1548 1553 1556 1559 1561 1564 1567 1569 1572 1575 1577 1579 1580 1582 1583 1585 1586 1587 1588 1588 1588 1588 1588 1588 1587 1587 1587 1587 1586 1586 1586 1585 1585 1584 1583
1517 1517 1520 1524 1527 1531 1536 1540 1544 1548 1552 1555 1559 1561 1564 1567 1569 1571 1574 1576 1578 1580 1581 1583 1584 1585 1586 1586 1586 1586 1586 1585 1585 1585 1585 1584 1584 1583 1583 1583 1582 1582 1582
1515 1515 1517 1520 1523 1527 1532 1536 1540 1544 1548 1552 1555 1558 1561 1564 1566 1569 1571 1573 1576 1578 1579 1581 1582 1583 1583 1583 1583 1584 1583 1583 1583 1582 1582 1581 1581 1581 1581 1580 1580 1580 1580
1514 1513 1515 1517 1520 1523 1527 1530 1535 1539 1543 1547 1550 1553 1557 1560 1563 1565 1568 1570 1572 1575 1576 1578 1579 1580 1580 1580 1580 1581 1580 1581 1581 1580 1579 1578 1578 1578 1577 1577 1577 1577 1577
1513 1511 1512 1515 1518 1520 1523 1525 1528 1532 1537 1541 1545 1548 1552 1555 1558 1560 1563 1566 1568 1570 1572 1574 1575 1576 1577 1578 1578 1578 1578 1578 1577 1578 1577 1576 1576 1575 1575 1575 1575 1575 1575
1512 1511 1512 1514 1516 1518 1519 1521 1524 1527 1531 1534 1538 1542 1546 1549 1552 1555 1558 1561 1563 1566 1568 1570 1571 1572 1572 1573 1574 1574 1574 1575 1574 1574 1574 1574 1573 1573 1573 1573 1573 1572 1572
1512 1512 1510 1511 1512 1512 1513 1514 1518 1521 1526 1528 1531 1534 1538 1542 1546 1549 1552 1555 1558 1561 1563 1565 1566 1567 1568 1569 1570 1570 1571 1572 1571 1571 1571 1571 1571 1571 1571 1571 1571 1570 1569
1512 1512 1510 1509 1509 1510 1511 1510 1514 1516 1519 1522 1525 1528 1532 1536 1540 1543 1547 1550 1552 1554 1557 1559 1561 1563 1565 1566 1567 1567 1568 1568 1569 1568 1568 1568 1568 1569 1568 1568 1567 1567 1566
1509 1510 1508 1508 1509 1508 1509 1511 1511 1512 1514 1517 1520 1523 1525 1529 1533 1537 1540 1543 1546 1548 1550 1553 1556 1558 1560 1562 1563 1563 1564 1564 1564 1564 1564 1564 1564 1564 1564 1563 1563 1563 1561
1507 1507 1505 1507 1508 1509 1509 1509 1509 1508 1510 1513 1515 1518 1520 1523 1526 1529 1533 1536 1539 1541 1543 1546 1549 1551 1554 1556 1558 1559 1560 1561 1561 1560 1560 1559 1560 1559 1559 1559 1558 1557 1557
1504 1503 1503 1504 1505 1507 1507 1506 1505 1505 1507 1510 1512 1514 1514 1516 1519 1522 1525 1528 1532 1535 1537 1540 1543 1544 1547 1550 1552 1553 1555 1556 1556 1556 1556 1556 1555 1555 1555 1554 1553 1552 1551
1502 1502 1501 1502 1503 1503 1504 1503 1503 1504 1503 1504 1507 1508 1511 1512 1513 1516 1519 1522 1524 1528 1531 1534 1537 1539 1542 1545 1547 1548 1549 1550 1551 1551 1551 1550 1550 1550 1550 1549 1549 1548 1547
1501 1501 1500 1501 1501 1501 1502 1501 1501 1502 1503 1503 1503 1505 1506 1507 1509 1511 1514 1516 1518 1521 1523 1527 1530 1534 1537 1540 1541 1543 1545 1546 1546 1546 1546 1546 1546 1546 1547 1546 1546 1545 1544
1501 1500 1500 1500 1498 1498 1497 1498 1499 1500 1501 1501 1499 1501 1497 1501 1503 1504 1507 1509 1510 1512 1515 1520 1525 1529 1532 1534 1537 1539 1541 1543 1543 1543 1542 1543 1543 1543 1544 1545 1544 1544 1544
1500 1500 1500 1498 1498 1497 1495 1494 1496 1496 1498 1497 1496 1493 1496 1497 1498 1498 1500 1502 1503 1506 1509 1515 1521 1525 1528 1531 1533 1535 1538 1540 1540 1541 1541 1540 1541 1541 1541 1542 1544 1544 1544
1499 1499 1498 1497 1496 1495 1494 1493 1494 1494 1496 1496 1497 1496 1495 1494 1494 1496 1497 1498 1500 1501 1505 1512 1518 1521 1526 1525 1530 1532 1535 1534 1539 1541 1540 1541 1541 1540 1542 1543 1544 1544 1543
1496 1497 1498 1497 1495 1494 1493 1493 1493 1494 1495 1495 1496 1498 1497 1497 1499 1498 1498 1499 1500 1502 1506 1511 1515 1521 1525 1526 1529 1529 1528 1534 1539 1540 1539 1542 1542 1540 1542 1543 1544 1545 1544
1493 1495 1496 1495 1493 1492 1492 1493 1492 1493 1493 1493 1494 1496 1498 1498 1500 1501 1502 1504 1506 1509 1510 1513 1517 1521 1522 1527 1529 1529 1531 1535 1538 1540 1541 1542 1542 1541 1543 1542 1543 1544 1544
1492 1493 1493 1494 1493 1492 1493 1492 1491 1492 1493 1493 1494 1495 1498 1500 1501 1501 1503 1505 1508 1510 1512 1515 1518 1521 1525 1527 1528 1529 1531 1534 1536 1538 1541 1541 1540 1539 1540 1542 1544 1544 1545